Greenville/Spartanburg, SC

1:58 AM EST on February 25, 2018 (GMT -0500)
Greenville-Spartanburg International

Weather History for KGSP - March, 2014

Change the Weather History Date:

Tuesday, March 18, 2014

  Actual Average Record
Temperature  
Mean Temperature 42 °F 53 °F  
Max Temperature 50 °F 65 °F 86 °F (1963)
Min Temperature 33 °F 42 °F 19 °F (1902)
Degree Days  
Heating Degree Days 23 12  
Month to date heating degree days 300 252  
Since 1 July heating degree days 2859 2701  
Cooling Degree Days 0 0  
Month to date cooling degree days 0 0  
Year to date cooling degree days 0 0  
Moisture  
Dew Point 35 °F    
Average Humidity 78    
Maximum Humidity 89    
Minimum Humidity 66    
Precipitation  
Precipitation 0.00 in 0.14 in 1.63 in (1969)
Month to date precipitation 3.57 2.67  
Year to date precipitation 9.81 10.46  
Snow  
Snow 0.00 in 0.00 in 2.50 in (1893)
Month to date snowfall T 0.6  
Since 1 July snowfall 7.2 4.4  
Snow Depth 0.00 in    
Sea Level Pressure  
Sea Level Pressure 30.01 in    
Wind  
Wind Speed 11 mph (NE)    
Max Wind Speed 16 mph    
Max Gust Speed 22 mph    
Visibility 9 miles    
Events      
T = Trace of Precipitation, MM = Missing Value Source: NWS Daily Summary

Daily Weather History Graph

Daily Weather History Graph

Search for Another Location

Airport or City:

Trip Planner

Search our weather history database for the weather conditions in past years. The results will help you decide how hot, cold, wet, or windy it might be!

Date:

Astronomy

Mar. 18, 2014 Rise Set
Actual Time 7:35 AM EDT 7:38 PM EDT
Civil Twilight 7:10 AM EDT 8:04 PM EDT
Nautical Twilight 6:40 AM EDT 8:33 PM EDT
Astronomical Twilight 6:11 AM EDT 9:03 PM EDT
Moon 9:48 PM EDT (3/18) 8:29 AM EDT (3/18)
Length of Visible Light 12h 54m
Length of Day
12h 03m
Waning Gibbous, 96% of the Moon is Illuminated
Mar 18
Waning Gibbous
Mar 23
Last Quarter
Mar 30
New
Apr 7
First Quarter
Apr 15
Full

Hourly Weather History & Observations

Time (EDT) Temp. Windchill Dew Point Humidity Pressure Visibility Wind Dir Wind Speed Gust Speed Precip Events Conditions
12:00 AM 33.1 °F 24.9 °F 30.9 °F 92% 29.92 in 10.0 mi NE 10.4 mph - N/A   Overcast
12:53 AM 33.1 °F 24.4 °F 30.0 °F 89% 29.92 in 10.0 mi NE 11.5 mph - N/A   Overcast
1:23 AM 33.1 °F 26.1 °F 30.9 °F 92% 29.93 in 10.0 mi NE 8.1 mph - N/A   Overcast
1:32 AM 33.1 °F 24.9 °F 30.0 °F 89% 29.92 in 10.0 mi NE 10.4 mph - N/A   Overcast
1:53 AM 33.1 °F 23.9 °F 30.0 °F 89% 29.93 in 10.0 mi NE 12.7 mph - N/A   Overcast
2:02 AM 33.1 °F 24.9 °F 30.9 °F 92% 29.92 in 10.0 mi NE 10.4 mph - N/A   Overcast
2:20 AM 33.1 °F 24.9 °F 30.9 °F 92% 29.92 in 10.0 mi NE 10.4 mph - N/A   Overcast
2:53 AM 33.1 °F 24.4 °F 30.0 °F 89% 29.93 in 10.0 mi NNE 11.5 mph - N/A   Overcast
3:30 AM 33.1 °F 24.4 °F 30.0 °F 89% 29.90 in 10.0 mi NE 11.5 mph - N/A   Overcast
3:53 AM 33.1 °F 23.9 °F 30.9 °F 92% 29.91 in 10.0 mi NE 12.7 mph - N/A   Overcast
4:53 AM 33.1 °F 24.4 °F 30.9 °F 92% 29.91 in 9.0 mi ENE 11.5 mph - N/A   Overcast
5:46 AM 33.1 °F 24.4 °F 30.0 °F 89% 29.89 in 10.0 mi NE 11.5 mph - N/A   Overcast
5:53 AM 33.1 °F 24.4 °F 30.0 °F 89% 29.91 in 10.0 mi NNE 11.5 mph - N/A   Overcast
6:53 AM 33.1 °F 23.0 °F 30.0 °F 89% 29.91 in 10.0 mi NNE 15.0 mph 20.7 mph N/A   Overcast
7:53 AM 34.0 °F 25.5 °F 30.9 °F 89% 29.94 in 10.0 mi NE 11.5 mph - N/A   Overcast
8:53 AM 34.0 °F 24.6 °F 30.9 °F 89% 29.96 in 10.0 mi NE 13.8 mph - N/A   Overcast
9:53 AM 36.0 °F 28.0 °F 32.0 °F 86% 29.99 in 10.0 mi NNE 11.5 mph - N/A   Overcast
10:32 AM 37.0 °F 29.3 °F 32.0 °F 82% 29.99 in 10.0 mi NNE 11.5 mph - N/A   Overcast
10:53 AM 37.0 °F 29.3 °F 33.1 °F 86% 30.03 in 10.0 mi NE 11.5 mph - N/A   Overcast
11:53 AM 39.0 °F 32.8 °F 34.0 °F 82% 30.06 in 10.0 mi NNE 9.2 mph - N/A   Overcast
12:53 PM 39.9 °F 33.4 °F 36.0 °F 86% 30.08 in 10.0 mi ENE 10.4 mph - N/A   Overcast
1:53 PM 45.0 °F 40.6 °F 37.0 °F 74% 30.08 in 10.0 mi NE 8.1 mph - N/A   Overcast
2:53 PM 48.9 °F - 39.9 °F 71% 30.06 in 10.0 mi NE 10.4 mph - N/A   Overcast
3:53 PM 50.0 °F - 39.9 °F 68% 30.05 in 10.0 mi NE 11.5 mph - N/A   Overcast
4:53 PM 48.9 °F - 39.9 °F 71% 30.04 in 10.0 mi NE 11.5 mph - N/A   Overcast
5:53 PM 48.9 °F - 39.9 °F 71% 30.04 in 10.0 mi ENE 10.4 mph - N/A   Overcast
6:53 PM 46.0 °F 41.0 °F 39.9 °F 79% 30.05 in 10.0 mi East 10.4 mph - N/A   Overcast
7:21 PM 45.0 °F 39.7 °F 39.9 °F 82% 30.06 in 10.0 mi East 10.4 mph - N/A   Overcast
7:53 PM 44.1 °F 38.1 °F 39.9 °F 85% 30.08 in 10.0 mi East 11.5 mph - N/A   Overcast
8:53 PM 43.0 °F 38.2 °F 39.9 °F 89% 30.11 in 10.0 mi East 8.1 mph - N/A   Overcast
9:53 PM 43.0 °F 38.2 °F 39.0 °F 86% 30.12 in 10.0 mi NE 8.1 mph - N/A   Overcast
10:53 PM 42.1 °F 37.1 °F 39.9 °F 92% 30.13 in 8.0 mi NE 8.1 mph - N/A   Overcast
11:24 PM 42.1 °F 37.1 °F 39.9 °F 92% 30.12 in 2.5 mi NE 8.1 mph - N/A   Overcast
11:36 PM 42.1 °F 37.7 °F 39.9 °F 92% 30.12 in 3.0 mi NE 6.9 mph - N/A   Overcast
11:44 PM 42.1 °F 38.4 °F 39.9 °F 92% 30.12 in 2.5 mi NNE 5.8 mph - N/A   Overcast
11:53 PM 42.1 °F 37.7 °F 39.9 °F 92% 30.14 in 2.5 mi NE 6.9 mph - N/A   Overcast